MDT,Max TemperatureF,Mean TemperatureF,Min TemperatureF,Max Dew PointF,MeanDew PointF,Min DewpointF,Max Humidity, Mean Humidity, Min Humidity, Max Sea Level PressureIn, Mean Sea Level PressureIn, Min Sea Level PressureIn, Max VisibilityMiles, Mean VisibilityMiles, Min VisibilityMiles, Max Wind SpeedMPH, Mean Wind SpeedMPH, Max Gust SpeedMPH,PrecipitationIn, CloudCover, Events, WindDirDegrees
2012-10-1,76,60,43,38,34,27,70,43,16,30.22,30.12,30.05,10,10,10,13,7,15,0.00,0,,143
2012-10-2,80,61,42,37,33,25,70,42,13,30.09,29.98,29.87,10,10,10,14,7,17,0.00,0,,137
2012-10-3,81,63,44,34,29,17,58,34,9,29.96,29.91,29.82,10,10,10,25,7,31,0.00,0,,140
2012-10-4,80,63,45,34,29,24,53,33,13,30.02,29.92,29.82,10,10,9,25,9,45,0.00,1,,187
2012-10-5,72,61,50,37,24,15,42,27,12,29.95,29.88,29.79,10,10,10,20,6,28,0.00,1,,262
2012-10-6,62,50,37,29,17,0,53,31,8,30.07,29.99,29.92,10,10,10,14,6,16,0.00,0,,172
2012-10-7,61,46,30,19,12,4,59,35,10,30.16,30.08,30.01,10,10,10,15,6,17,0.00,0,,143
2012-10-8,70,50,30,20,14,6,53,31,9,30.15,30.03,29.92,10,10,10,13,6,15,0.00,0,,152
2012-10-9,73,54,35,28,23,18,59,37,14,30.04,29.97,29.91,10,10,10,15,6,18,0.00,0,,132
2012-10-10,76,59,41,34,28,24,53,35,17,30.09,29.98,29.87,10,10,10,15,6,18,0.00,0,,158
2012-10-11,77,59,41,36,29,26,57,37,16,30.03,29.94,29.86,10,10,10,21,8,24,0.00,1,,123
2012-10-12,62,54,45,50,43,32,86,64,42,30.15,29.98,29.86,10,8,2,29,7,35,0.46,6,Rain-Thunderstorm,147
2012-10-13,52,46,40,42,38,34,96,78,60,30.26,30.10,30.01,10,10,10,16,4,21,T,7,,145
2012-10-14,64,52,39,43,39,32,100,66,31,30.37,30.27,30.19,10,10,10,13,5,16,T,2,,125
2012-10-15,70,53,36,42,36,32,85,56,26,30.22,30.11,30.00,10,10,10,12,6,35,0.00,0,,126
2012-10-16,74,56,37,38,32,29,76,48,19,30.04,29.85,29.68,10,10,10,24,7,31,0.00,1,,192
2012-10-17,61,49,36,40,19,4,76,44,11,30.08,29.93,29.73,10,10,10,24,6,32,0.00,1,,298
2012-10-18,63,47,30,25,18,12,58,37,15,30.26,30.18,30.10,10,10,10,12,5,15,0.00,0,,155
2012-10-19,69,51,32,30,24,22,64,41,17,30.20,30.07,29.95,10,10,10,13,6,17,0.00,0,,159
2012-10-20,77,56,34,26,21,13,56,33,9,29.99,29.85,29.69,10,10,10,16,7,21,0.00,0,,161
2012-10-21,73,57,41,32,26,17,53,35,17,29.87,29.78,29.70,10,10,10,24,9,31,0.00,0,,180
2012-10-22,72,57,42,31,29,25,62,40,18,29.86,29.78,29.68,10,10,9,30,10,44,0.00,0,,175
2012-10-23,73,65,57,31,25,18,33,24,14,29.74,29.68,29.63,10,10,9,31,11,46,T,0,Rain,207
2012-10-24,68,52,35,35,26,14,82,48,13,29.95,29.72,29.52,10,9,4,38,10,48,0.00,3,,300
2012-10-25,51,41,30,30,23,9,85,53,20,30.27,30.11,29.96,10,10,10,22,7,28,T,5,,304
2012-10-26,46,34,22,21,15,4,81,50,18,30.47,30.35,30.25,10,10,10,9,5,13,0.00,0,,137
2012-10-27,55,39,23,16,13,9,60,39,18,30.30,30.20,30.11,10,10,10,14,5,17,0.00,1,,140
2012-10-28,61,44,27,24,20,16,63,44,24,30.27,30.18,30.09,10,10,8,14,5,16,0.00,0,,147
2012-10-29,66,49,32,29,26,23,72,48,24,30.27,30.19,30.11,10,10,10,14,6,15,0.00,0,,154
2012-10-30,66,49,31,28,25,22,69,45,20,30.27,30.18,30.09,10,10,10,12,7,25,0.00,0,,168
2012-10-31,67,50,32,26,24,21,64,42,20,30.25,30.15,30.06,10,10,10,13,7,15,0.00,0,,139